Regional Weather Roundup
Issued by NWS

Home | Current Version | Previous Version | Text Only | Print | Product List | Glossary Off
Versions: 1 2 3 4 5 6 7 8 9 10 11 12 13 14 15 16 17 18 19 20 21 22 23 24 25 26 27 28 29 30 31 32 33 34 35 36 37 38 39 40 41 42 43 44 45 46 47 48 49 50

998
ASUS43 KLOT 301403
RWRIL

ILLINOIS REGIONAL WEATHER ROUNDUP
NATIONAL WEATHER SERVICE CHICAGO/ROMEOVILLE IL
900 AM CDT THU MAR 30 2017

NOTE: "FAIR" INDICATES FEW OR NO CLOUDS BELOW 12,000 FEET WITH NO
SIGNIFICANT WEATHER AND/OR OBSTRUCTIONS TO VISIBILITY.

* THESE STATIONS ARE NOT UNDER NWS QUALITY CONTROL. THEY ALSO MAY NOT
  REPORT WEATHER SUCH AS PRECIPITATION OR FOG.

ILZ001-002-007-009-015-016-024-301500-
NORTHWEST ILLINOIS

CITY           SKY/WX    TMP DP  RH WIND       PRES   REMARKS
MOLINE         LGT RAIN  45  42  89 NE16      29.65F FOG
STERLING*      CLOUDY    43  41  93 E16G25    29.70R
SAVANNA*       RAIN      41  40  95 E12       29.73F
$$

ILZ003-004-008-010-011-017-018-301500-
NORTH CENTRAL ILLINOIS

CITY           SKY/WX    TMP DP  RH WIND       PRES   REMARKS
ROCKFORD       LGT RAIN  42  39  89 E10       29.77R
FREEPORT*      LGT RAIN  39  39  98 NE17      29.75F WCI  30
ROCHELLE*      CLOUDY    42  40  94 E15G24    29.72R
DE KALB*       CLOUDY    41  40  95 E17G24    29.73R
PERU*          CLOUDY    44  42  93 E16G24    29.67F
$$

ILZ005-006-012>014-019>023-301500-
NORTHEAST ILLINOIS

CITY           SKY/WX    TMP DP  RH WIND       PRES   REMARKS
CHICAGO-OHARE  LGT RAIN  42  39  89 E15G24    29.77F
CHICAGO-MIDWAY CLOUDY    43  41  93 E16G28    29.75F
AURORA         CLOUDY    43  40  89 E16       29.72F FOG
LANSING*       CLOUDY    43  42  96 E13G18    29.75F
JOLIET*        CLOUDY    46  43  92 E13       29.73F
WAUKEGAN       LGT RAIN  39  39 100 NE12      29.79F FOG     WCI  32
DUPAGE AIRPORT CLOUDY    42  41  96 E16       29.74F
KANKAKEE*      CLOUDY    45  43  93 E20       29.72F
WHEELING       LGT RAIN  40  40 100 E10       29.77F
MORRIS*        CLOUDY    44  41  90 E16G23    29.71F
ROMEOVILLE*    CLOUDY    43  43  99 E15       29.73S
NORTHERLY ISL    N/A     40  38  93 E12         N/A
$$

LMZ740>746-301500-
SOUTHERN LAKE MICHIGAN

STATION/POSITION SKY/WX   TEMP    WIND        PRES    VSBY  WAVE
                          AIR SEA DIR/SP/G                  HT/PER
                          (F)     (DEG/KT/KT) (MB)    (MI)  (FT/S)
HARRISON CRIB              40     100/ 16/ 18   N/A
BURNHAM HARBOR             40      80/ 10/ 12   N/A
CALUMET HARBOR             41      90/ 10/ 18 1007.3F
BURNS HARBOR               43     100/ 13/ 22 1007.8F
MICHIGAN CITY              42     100/ 18/ 22   N/A
$$

ILZ025>027-034>036-040-047-049-050-058-095>099-301500-
WEST-CENTRAL ILLINOIS

CITY           SKY/WX    TMP DP  RH WIND       PRES   REMARKS
QUINCY         FOG       52  52 100 E9        29.56F VSB 1/4
GALESBURG*     CLOUDY    46  45  99 NE15      29.58F
MACOMB*        CLOUDY    47  47 100 E13       29.61F FOG
JACKSONVILLE*  CLOUDY    55  54  98 E7        29.56F
PITTSFIELD*    TSTM      55  55  99 NE3       29.57F VSB 3/4
$$

ILZ028>032-037-038-041>044-048-051>054-059>061-301500-
CENTRAL ILLINOIS

CITY           SKY/WX    TMP DP  RH WIND       PRES   REMARKS
PONTIAC        CLOUDY    46  45  99 E21G26    29.68F
BLOOMINGTON    CLOUDY    48  46  93 E18       29.64F
DECATUR        HVY RAIN  53  51  93 E20       29.60F FOG
PEORIA         HVY RAIN  47  46  97 E13       29.61F FOG
LACON*         CLOUDY    46  45  97 E8        29.65R
LINCOLN*       CLOUDY    53  52  98 E15       29.58F THUNDER
SPRINGFIELD    TSTM      56  55  97 SE12      29.60F FOG
TAYLORVILLE    NOT AVBL
$$

ILZ033-039-045-046-055>057-062-063-301500-
EAST-CENTRAL ILLINOIS

CITY           SKY/WX    TMP DP  RH WIND       PRES   REMARKS
CHAMPAIGN      LGT RAIN  52  49  89 E15       29.66F FOG
RANTOUL*       CLOUDY    50  49  97 E17       29.68F FOG
MATTOON        CLOUDY    56  55  97 SE10      29.64F
PARIS*         CLOUDY    54  52  95 E7        29.70F
$$

ILZ079-100>102-301500-
SOUTHWEST ILLINOIS

CITY           SKY/WX    TMP DP  RH WIND       PRES   REMARKS
ALTON          CLOUDY    59  57  94 SE6       29.58F FOG
CAHOKIA*       LGT RAIN  63  60  90 S6        29.56F
SPARTA*        LGT RAIN  65  56  74 S10G21    29.60F
$$

ILZ064>066-069>071-074>076-080>082-084>086-088>090-092>094-301500-
SOUTH-CENTRAL ILLINOIS

CITY           SKY/WX    TMP DP  RH WIND       PRES   REMARKS
CARBONDALE     PTSUNNY   64  59  83 S15G23    29.60F
CAIRO*         CLOUDY    65  58  78 S7        29.65F
EFFINGHAM*     CLOUDY    59  58  96 E9        29.63F
MARION         PTSUNNY   66  63  88 S12       29.64F
MT. VERNON     CLOUDY    64  59  83 S9        29.62F
CENTRALIA*     CLOUDY    65  59  82 S16G23    29.59F
SALEM*         CLOUDY    66  58  75 S17G24    29.61F
METROPOLIS*    CLOUDY    69  57  66 S16G23    29.66F
$$

ILZ067-068-072-073-078-083-087-091-301500-
SOUTHEAST ILLINOIS

CITY           SKY/WX    TMP DP  RH WIND       PRES   REMARKS
LAWRENCEVILLE  CLOUDY    63  58  83 S8        29.65F
FLORA*         CLOUDY    61  58  91 SE6       29.63F
FAIRFIELD*     CLOUDY    64  59  83 S5        29.63F
HARRISBURG*    CLOUDY    66  59  76 S6        29.65F
ROBINSON*      CLOUDY    57  53  88 SE8       29.67F
CARMI*         CLOUDY    63  59  87 S8        29.65R
$$

ABBREVIATIONS USED IN REMARKS
   TC - TEMPERATURE IN CELSIUS
  WCI - WIND CHILL INDEX
   HX - HEAT INDEX
  VSB - VISIBILITY
$$





USA.gov is the U.S. government's official web portal to all federal, state and local government web resources and services.